Location: Unspecified
(0.0000°N, 0.0000°E)
Time: 14:38:43
(UTC+00:00)

deb Briz - Pass Details

Date: 15 February 2026
Orbit: 1676 x 2329 km, 64.7° (Epoch: 4 March)

Event Time Altitude Azimuth Distance (km) Brightness Sun altitude
Rises 21:02:52 0° 240° (WSW) 5,735 ? -41.0°
Reaches altitude 10° 21:08:17 10° 258° (WSW) 4,817 ? -42.3°
Maximum altitude 21:15:38 17° 294° (WNW) 4,317 ? -44.0°
Drops below altitude 10° 21:23:12 10° 330° (NNW) 4,913 ? -45.8°
Sets 21:29:01 0° 349° (N) 5,897 ? -47.2°
